sat.trackr.live / text

‹ back to catalog

STARLINK-31504

NORAD 59303 · 2024-056H

PAYLOAD ACTIVE UNKNOWN

§ Identity

Operator
Country
US
Launch date
2024-03-24
Launch site
AFETR
Launch vehicle
Mass (kg)
RCS (m²)

Purposes: comms

External: N2YO · Heavens-Above · Gunter

§ Orbital elements

Epoch: 2026-05-24T17:42:52.089696Z

Period
94.27 min
Inclination
42.9997°
Eccentricity
0.0001186
Mean motion
15.27576508 rev/d
Perigee alt
482.2 km
Apogee alt
483.9 km
Semi-major
6,861.2 km
B*
-2.6640e-6
RAAN
161.3402°
Arg perigee
276.4172°
Mean anomaly
83.6545°
Rev number
12,278

§ Raw data

STARLINK-315041 59303U 24056H   26144.73810289 -.00000335  00000+0 -26640-5 0  99972 59303  42.9997 161.3402 0001186 276.4172  83.6545 15.27576508122781

JSON: /api/v1/satellites/59303 · /tle

For live sub-satellite position, see the globe view (requires WebGL).

§ Visibility from observer

Set your observer location to see the next 7 days of passes ≥ 10°. The values pass through the URL so the page stays shareable.

No JS? Fill the form by hand. The geolocation button needs JavaScript.